sat.trackr.live / text

‹ back to catalog

STARLINK-2753

NORAD 48696 · 2021-044BL

PAYLOAD ACTIVE UNKNOWN

§ Identity

Operator
Country
US
Launch date
2021-05-26
Launch site
AFETR
Launch vehicle
Mass (kg)
RCS (m²)

Purposes: comms

External: N2YO · Heavens-Above · Gunter

§ Orbital elements

Epoch: 2026-09-19T15:38:56.497056Z

Period
93.85 min
Inclination
53.1564°
Eccentricity
0.0004367
Mean motion
15.34289640 rev/d
Perigee alt
460.0 km
Apogee alt
466.0 km
Semi-major
6,841.2 km
B*
8.6363e-4
RAAN
265.5540°
Arg perigee
52.5804°
Mean anomaly
307.5595°
Rev number
29,390

§ Raw data

STARLINK-27531 48696U 21044BL  26262.65204279  .00028818  00000+0  86363-3 0  99922 48696  53.1564 265.5540 0004367  52.5804 307.5595 15.34289640293909

JSON: /api/v1/satellites/48696 · /tle

For live sub-satellite position, see the globe view (requires WebGL).

§ Visibility from observer

Set your observer location to see the next 7 days of passes ≥ 10°. The values pass through the URL so the page stays shareable.

No JS? Fill the form by hand. The geolocation button needs JavaScript.